Powrót do katalogu

STARLINK-3246

AktywnyŁącznośćVLEO
NORAD 49732·PAYLOAD·🇺🇸 United States

Wystrzelony Dec 2, 2021 z Cape Canaveral Space Force Station

Loading…

Następne Przeloty (najbliższe 24 godziny)

TLE

ŚwieżeSource: CelesTrak SupGP

Epoka: Sep 15, 2026, 01:57 UTC

1 49732C 21115J   26258.08173611 -.00016859  00000+0 -54229-3 0  2588
2 49732  53.1588  17.0380 0001230  92.3513 172.1191 15.31702546    12

Śledź STARLINK-3246 w czasie rzeczywistym z AllMySat

Download on the App Store